Location: Lecco
(45.8566°N, 9.3977°E)
Time: 08:37:13
(UTC+02:00)

Altair - Pass Details

Date: 20 August 2020
Orbit: 1501 x 1682 km, 47.2° (Epoch: 25 September)

Event Time Altitude Azimuth Distance (km) Brightness Sun altitude
Rises 07:03:33 0° 291° (WNW) 4,750 9.6 5.0°
Reaches altitude 10° 07:06:43 10° 288° (WNW) 3,740 9.0 5.5°
Maximum altitude 07:15:50 58° 213° (SSW) 1,736 7.7 7.1°
Drops below altitude 10° 07:24:43 10° 137° (SE) 3,646 10.0 8.6°
Sets 07:27:46 0° 134° (SE) 4,623 10.6 9.1°
